Location: Dogwood Flats
(39.5248°N, 79.0167°W)
Time: 06:28:23
(UTC+00:00)

Daily predictions for brighter satellites

Satellite Brightness Start Highest point End
(mag) Time Altitude Azimuth Time Altitude Azimuth Time Altitude Azimuth
Cosmos 2344 4.4 22:02:40 10° NW 22:11:09 81° WSW 22:23:08 10° SSE
Landsat 7 4.4 22:15:06 10° SE 22:19:16 34° ENE 22:23:26 10° N
NOSS 8 (E) 4.3 22:20:29 10° NNW 22:23:34 75° NE 22:27:22 10° SE
Cosmos 2098 Rocket 3.4 22:24:49 10° SSE 22:28:00 32° E 22:31:42 10° NNE
NOSS 2-2 (C) 3.7 22:24:52 10° SW 22:28:18 45° NW 22:31:16 10° NNE
NOSS 8 (F) 4.3 22:26:13 10° NNW 22:29:19 81° ENE 22:33:10 10° SE
Cosmos 1758 Rocket 4.1 22:25:35 10° NNE 22:29:30 33° ENE 22:33:23 10° SE
MOS 1 Rocket 4.0 22:28:28 10° SE 22:32:37 32° ENE 22:37:01 10° N
Cosmos 405 Rocket 2.7 22:30:51 10° N 22:33:57 40° ENE 22:37:00 10° SSE
Intercosmos 24 3.8 22:31:39 10° N 22:35:29 51° E 22:38:55 10° SSE
IRS-1C 4.2 22:32:09 10° SSE 22:37:18 54° ENE 22:42:28 10° N
ARIANE 5 R/B 2.6 22:33:47 10° SSE 22:38:40 55° ENE 22:43:37 10° N
UNK 3.9 22:36:41 10° N 22:41:17 79° WNW 22:45:49 10° SSW
Cosmos 2228 3.4 22:37:10 10° SSW 22:41:20 64° W 22:45:33 10° N
Helios 1A Rocket 4.5 22:45:12 12° E 22:45:12 12° E 22:46:22 10° ESE
Cosmos 773 Rocket 4.5 22:40:22 10° N 22:45:11 37° ENE 22:50:00 10° SE
Cosmos 2297 Rocket 2.9 22:43:45 10° N 22:48:42 30° ENE 22:53:37 10° ESE
USA 276 0.7 22:47:58 10° WNW 22:49:09 45° SW 22:49:29 32° SSE
Cosmos 1733 2.0 22:48:15 10° N 22:50:07 36° E 22:51:58 10° SSE
Cosmos 1461 3.9 22:47:42 10° SSE 22:50:51 24° ESE 22:52:43 17° ENE
BlueWalker 3 3.3 22:51:54 10° NNW 22:54:39 20° NNE 22:55:43 18° NE
Cosmos 1626 Rocket 3.4 22:50:29 10° N 22:54:50 80° E 22:59:07 10° S
Cosmos 1656 3.7 22:50:42 10° SSW 22:56:16 89° WNW 23:01:58 10° NNE
Cosmos 1606 Rocket 4.3 22:54:53 10° SSE 22:58:42 30° E 23:01:55 13° NNE
ARIANE 6 FM1 Upper Stage 3.1 22:55:44 10° NW 22:59:40 61° WSW 23:03:39 10° SSE
SAR-Lupe-4 3.5 22:57:12 10° SSE 23:00:44 86° WSW 23:04:19 10° NNW
Okean 1-7 Rocket 4.2 22:58:38 10° NNE 23:02:37 32° ENE 23:06:32 10° SE
CENTAUR R/B 4.0 22:58:08 10° W 23:02:59 28° NW 23:08:49 10° NNE
SJ-12 3.7 23:00:12 10° SSE 23:03:58 89° WSW 23:07:46 10° NNW
Resurs 1-3 4.5 23:01:00 10° SE 23:04:32 26° ENE 23:08:04 10° NNE
SAR-Lupe-3 3.5 23:02:49 15° NNE 23:04:47 88° ESE 23:07:18 10° SSW
SAR-Lupe-1 4.0 23:02:51 10° SSE 23:06:26 86° WSW 23:10:03 10° NNW
CZ-2D R/B 2.9 23:03:45 10° S 23:06:51 71° WSW 23:09:59 10° NNW
Cosmos 1544 Rocket 4.1 23:03:05 10° SSW 23:07:24 60° W 23:11:46 10° N
USA 290 4.3 23:05:02 10° N 23:05:51 15° NNE 23:05:51 15° NNE
BREEZE-M DEB (TANK) 3.4 23:03:56 10° SW 23:09:28 41° SSE 23:10:40 27° E
BREEZE M DEB (TANK) 2.9 23:07:37 10° W 23:10:01 30° NNW 23:10:39 24° N
Cosmos 1933 3.5 23:07:55 10° SSE 23:11:32 43° E 23:13:42 21° NNE
Cosmos 1980 Rocket 3.7 23:09:28 10° SE 23:12:35 17° ESE 23:12:35 17° ESE
Cosmos 1782 4.0 23:15:12 10° SSW 23:18:34 38° W 23:21:58 10° N
Lacrosse 5 rocket 3.5 23:16:55 10° WNW 23:18:58 14° NNW 23:21:01 10° N
SKYMED 2 3.4 23:15:45 10° NNE 23:20:06 74° ESE 23:24:26 10° S
Cosmos 1743 2.3 23:18:42 10° N 23:21:58 77° W 23:25:11 10° S
Cosmos 2360 4.4 23:18:56 10° SSW 23:24:37 72° WNW 23:30:11 11° NNE
Cosmos 1726 Rocket 3.9 23:22:01 10° SSE 23:26:26 46° E 23:28:32 27° NE
Cosmos 2151 2.8 23:22:27 10° N 23:26:37 88° E 23:30:46 10° S
Cosmos 1503 Rocket 3.9 23:21:26 10° SSW 23:26:42 84° ESE 23:31:03 15° NNE
IRS-P3 4.3 23:22:20 10° S 23:27:39 76° WSW 23:32:59 10° NNW
IRIDIUM 104 4.5 23:23:09 10° N 23:28:23 77° W 23:33:36 10° S
Cosmos 1602 Rocket 3.7 23:27:45 10° N 23:32:10 76° W 23:36:29 10° S
Cosmos 1354 Rocket 3.9 23:27:09 10° S 23:32:21 65° ESE 23:35:21 26° NNE
Cosmos 2263 Rocket 4.0 23:29:28 10° N 23:30:55 14° NNE 23:30:55 14° NNE
Spot 4 Rocket 3.9 23:29:57 10° SSE 23:34:58 63° ENE 23:40:02 10° N
IRAS Rocket 4.2 23:31:23 10° SSE 23:36:44 55° ENE 23:42:04 10° N
Cosmos 2227 Rocket 2.9 23:34:23 10° N 23:38:44 32° NE 23:38:44 32° NE
ATLAS CENTAUR R/B 2.8 23:36:47 10° NNW 23:37:43 17° NNW 23:37:43 17° NNW
CZ-4C R/B 3.2 23:33:45 10° NNW 23:40:40 48° NE 23:45:08 27° ESE
YAOGAN 1 2.3 23:38:19 10° SSE 23:42:32 71° ENE 23:46:47 10° N
COSMO-SKYMED 1 2.4 23:44:26 31° N 23:46:20 83° WNW 23:50:27 10° SSW
Cosmos 1867 4.4 23:42:09 10° NNW 23:46:12 32° NNE 23:46:12 32° NNE
NOSS 3-2 (C) 3.4 23:43:54 10° SW 23:48:44 61° NW 23:51:40 27° NNE
Gbstr 26 Del rocket 2.7 23:50:37 10° SW 23:54:18 73° SSW 23:54:18 73° SSW
